Regional Weather Roundup
Issued by NWS

Home | Current Version | Previous Version | Graphics & Text | Print | Product List | Glossary On
Versions: 1 2 3 4 5 6 7 8 9 10 11 12 13 14 15 16 17 18 19 20 21 22 23 24 25 26 27 28 29 30 31 32 33 34 35 36 37 38 39 40 41 42 43 44 45 46 47 48 49 50
443
ASUS45 KPSR 240810
RWRAZ

ARIZONA HOURLY REGIONAL WEATHER ROUNDUP
NATIONAL WEATHER SERVICE PHOENIX AZ
100 AM MST FRI MAR 24 2017

NOTE: FAIR INDICATES FEW OR NO CLOUDS BELOW 12,000 FEET WITH NO
SIGNIFICANT WEATHER AND/OR OBSTRUCTIONS TO VISIBILITY.

AZZ001>003-036-240900-
NORTHWEST ARIZONA

CITY           SKY/WX    TMP DP  RH WIND       PRES   REMARKS
BULLHEAD CITY  CLEAR     61  34  36 CALM      30.08R
KINGMAN        CLEAR     43  22  43 E5        30.15R
$$

AZZ004>008-015-016-018-240900-
NORTH CENTRAL ARIZONA

CITY           SKY/WX    TMP DP  RH WIND       PRES   REMARKS
GRAND CANYON   CLEAR     32  30  92 CALM      30.15R
WILLIAMS       CLEAR     32  28  86 W6        30.17R WCI  26
PRESCOTT       CLEAR     39  32  76 NE6       30.17R WCI  35
FLAGSTAFF      CLEAR     34  25  69 W12G24    30.11S WCI  25
PAYSON         CLEAR     39  34  81 NW6       30.17F WCI  35
PAGE           CLEAR     49  32  52 W13G20    30.04R
$$

AZZ009>014-017-240900-
NORTHEAST ARIZONA

CITY           SKY/WX    TMP DP  RH WIND       PRES   REMARKS
WINSLOW        CLEAR     40  27  59 W12       30.08R WCI  33
SAINT JOHNS    CLOUDY    41  32  70 W16       30.05R
WINDOW ROCK    CLOUDY    37  30  75 W12G22    30.00R WCI  29
SHOW LOW       MOCLDY    32  28  86 SW10      30.13R WCI  24
$$

AZZ023-240900-
GREATER PHOENIX AREA

CITY           SKY/WX    TMP DP  RH WIND       PRES   REMARKS
PHOENIX        CLEAR     62  35  36 N7        30.09R
BUCKEYE        CLEAR     50  41  71 NW5       30.12R
LUKE AFB       CLEAR     57  40  52 CALM      30.09R
DEER VALLEY    CLEAR     53  39  59 E3        30.10R
SCOTTSDALE     CLEAR     55  39  54 CALM      30.11S
MESA-GATEWAY   CLEAR     52  39  62 E6        30.12R
$$

AZZ027-028-240900-
SOUTHWEST MARICOPA COUNTY AND PINAL COUNTY

CITY           SKY/WX    TMP DP  RH WIND       PRES   REMARKS
CASA GRANDE    NOT AVBL
GILA BEND      FAIR      60  30  32 SW9       30.11S
$$

AZZ503-504-507>509-240900-
SOUTHEAST ARIZONA

CITY           SKY/WX    TMP DP  RH WIND       PRES   REMARKS
TUCSON         CLEAR     51  22  31 SE7       30.18R
DAVIS-MONTHAN  CLEAR     47  21  35 SE6       30.17R
NOGALES        CLEAR     40  19  43 E5        30.19R
SIERRA VISTA   CLEAR     40  18  40 W7        30.20R
DOUGLAS        CLEAR     43  21  41 N6        30.18R
SAFFORD        PTCLDY    46  36  68 SE6       30.09S
$$

AZZ020-021-025-026-031-240900-
SOUTHWEST ARIZONA

CITY           SKY/WX    TMP DP  RH WIND       PRES   REMARKS
YUMA           CLEAR     59  41  51 SW6       30.14S
$$

CAZ031-033-041-043-047-048-061-240900-
SOUTHERN CALIFORNIA

CITY           SKY/WX    TMP DP  RH WIND       PRES   REMARKS
DOWNTOWN L.A.  PTCLDY    57  51  80 CALM      30.23S
L.A. AIRPORT   PTCLDY    54  51  90 VRB3      30.23S
SAN DIEGO      PTCLDY    57  46  66 E5        30.26S
BURBANK        CLEAR     54  48  80 E5        30.22S
ONTARIO        CLEAR     50  43  77 CALM      30.22S
RIVERSIDE      CLEAR     51  43  74 CALM      30.24R
PALM SPRINGS   CLEAR     63  38  39 NW7       30.14R
EL CENTRO NAS  CLEAR     54  36  50 NW7       30.14S
IMPERIAL       CLEAR     57  40  52 NW3       30.12S
BLYTHE         CLEAR     61  42  49 S7        30.10R
NEEDLES        CLEAR     68  25  19 W3        30.09R
$$

NVZ020-UTZ003-240900-
SOUTHERN NEVADA-UTAH

CITY           SKY/WX    TMP DP  RH WIND       PRES   REMARKS
LAS VEGAS      CLEAR     58  36  43 NW3       30.11R
SALT LAKE CITY PTCLDY    35  35 100 S3        30.14R
$$

NMZ009-TXZ055-240900-
NEW MEXICO-WEST TEXAS

CITY           SKY/WX    TMP DP  RH WIND       PRES   REMARKS
ALBUQUERQUE    CLOUDY    43  30  60 SW15      29.88F
EL PASO        CLEAR     52  23  32 W26G35    30.03S
$$


........................KEY........................
SKY/WX - SKY CONDITION/WEATHER
TMP    - TEMPERATURE IN FAHRENHEIT
DP     - DEW POINT IN FAHRENHEIT
RH     - RELATIVE HUMIDITY IN PERCENT
WIND   - DIRECTION AND SPEED IN MILES PER HOUR (MPH)
VRB    - VARIABLE WIND DIRECTION
PRES   - MEAN SEA LEVEL PRESSURE IN INCHES OF MERCURY
         F - FALLING PRESSURE   R - RISING PRESSURE
         S - STEADY PRESSURE
VSB    - VISIBILITY IN MILES
HX     - HEAT INDEX IN FAHRENHEIT
WCI    - WIND CHILL INDEX IN FAHRENHEIT
TC     - TEMPERATURE IN CELSIUS WHICH IS ALSO KNOWN AS
         TEMPERATURE IN CENTIGRADE
AFB    - AIR FORCE BASE
         LUKE AFB IS LUKE AIR FORCE BASE
         DAVIS-MONTHAN IS DAVIS-MONTHAN AIR FORCE BASE
NAS    - NAVAL AIR STATION
         EL CENTRO NAS IS EL CENTRO NAVAL AIR STATION
N/A    - NOT AVAILABLE





USA.gov is the U.S. government's official web portal to all federal, state and local government web resources and services.